| time (UTC) | temp F | wind direction | speed MPH | gust MPH | rain 1hr in | rain 24hr in | rain mn in | humidity % | barometer mb |
| 20260906074605 | 54 | 53 | 0.0 | 3.0 | 0.00 | 0.00 | 0.00 | 87 | 1016.6 |
| 20260906073105 | 55 | 53 | 0.0 | 1.0 | 0.00 | 0.00 | 0.00 | 87 | 1016.7 |
| 20260906071548 | 55 | 53 | 0.0 | 2.0 | 0.00 | 0.00 | 0.00 | 88 | 1016.8 |
| 20260906070046 | 55 | 53 | 3.0 | 4.0 | 0.00 | 0.00 | 0.00 | 87 | 1017.0 |
| 20260906064546 | 56 | 53 | 1.0 | 3.0 | 0.00 | 0.00 | 0.00 | 87 | 1016.9 |
| 20260906063049 | 56 | 53 | 1.0 | 3.0 | 0.00 | 0.00 | 0.00 | 86 | 1016.9 |
| 20260906061545 | 56 | 53 | 1.0 | 3.0 | 0.00 | 0.00 | 0.00 | 86 | 1016.9 |
| 20260906060044 | 56 | 53 | 2.0 | 4.0 | 0.00 | 0.00 | 0.00 | 85 | 1017.0 |
| 20260906054545 | 57 | 53 | 1.0 | 4.0 | 0.00 | 0.00 | 0.00 | 85 | 1017.0 |
| 20260906053043 | 57 | 53 | 2.0 | 4.0 | 0.00 | 0.00 | 0.00 | 84 | 1017.1 |
| 20260906051555 | 57 | 52 | 2.0 | 4.0 | 0.00 | 0.00 | 0.00 | 83 | 1017.2 |
| 20260906050049 | 57 | 52 | 1.0 | 4.0 | 0.00 | 0.00 | 0.00 | 80 | 1017.2 |
| 20260906044548 | 58 | 49 | 3.0 | 4.0 | 0.00 | 0.00 | 0.00 | 78 | 1017.2 |
| 20260906043051 | 59 | 45 | 1.0 | 3.0 | 0.00 | 0.00 | 0.00 | 76 | 1017.3 |
| 20260906041540 | 59 | 45 | 1.0 | 4.0 | 0.00 | 0.00 | 0.00 | 75 | 1017.3 |
| 20260906040039 | 60 | 47 | 0.0 | 3.0 | 0.00 | 0.00 | 0.00 | 74 | 1017.3 |
| 20260906034545 | 60 | 47 | 0.0 | 4.0 | 0.00 | 0.00 | 0.00 | 71 | 1017.3 |
| 20260906033039 | 61 | 47 | 1.0 | 3.0 | 0.00 | 0.00 | 0.00 | 70 | 1017.1 |
| 20260906031545 | 62 | 47 | 1.0 | 4.0 | 0.00 | 0.00 | 0.00 | 68 | 1017.0 |
| 20260906030038 | 62 | 38 | 2.0 | 4.0 | 0.00 | 0.00 | 0.00 | 66 | 1017.0 |
| 20260906024639 | 64 | 37 | 3.0 | 4.0 | 0.00 | 0.00 | 0.00 | 64 | 1016.9 |
| 20260906023037 | 65 | 35 | 2.0 | 3.0 | 0.00 | 0.00 | 0.00 | 61 | 1016.9 |
| 20260906021538 | 66 | 34 | 0.0 | 4.0 | 0.00 | 0.00 | 0.00 | 60 | 1016.8 |
| 20260906020035 | 67 | 35 | 2.0 | 4.0 | 0.00 | 0.00 | 0.00 | 59 | 1016.9 |
| 20260906014534 | 69 | 5 | 1.0 | 3.0 | 0.00 | 0.00 | 0.00 | 54 | 1016.9 |
| 20260906013053 | 70 | 5 | 2.0 | 4.0 | 0.00 | 0.00 | 0.00 | 55 | 1016.7 |
| 20260906011534 | 70 | 355 | 3.0 | 5.0 | 0.00 | 0.00 | 0.00 | 52 | 1016.7 |
| 20260906010032 | 71 | 343 | 2.0 | 3.0 | 0.00 | 0.00 | 0.00 | 51 | 1016.7 |
| 20260906004531 | 71 | 342 | 2.0 | 4.0 | 0.00 | 0.00 | 0.00 | 51 | 1016.7 |
| 20260906003030 | 71 | 329 | 1.0 | 4.0 | 0.00 | 0.00 | 0.00 | 52 | 1016.7 |
| 20260906001529 | 72 | 324 | 1.0 | 3.0 | 0.00 | 0.00 | 0.00 | 50 | 1016.6 |
| 20260906000028 | 73 | 324 | 1.0 | 3.0 | 0.00 | 0.00 | 0.00 | 49 | 1016.7 |
| 20260905234627 | 74 | 327 | 1.0 | 4.0 | 0.00 | 0.00 | 0.00 | 51 | 1016.8 |
| 20260905233026 | 74 | 342 | 2.0 | 4.0 | 0.00 | 0.00 | 0.00 | 53 | 1016.8 |
| 20260905231526 | 73 | 342 | 2.0 | 5.0 | 0.00 | 0.00 | 0.00 | 53 | 1016.8 |
| 20260905230022 | 72 | 338 | 2.0 | 4.0 | 0.00 | 0.00 | 0.00 | 54 | 1016.9 |
| 20260905224517 | 71 | 346 | 2.0 | 5.0 | 0.00 | 0.00 | 0.00 | 55 | 1017.0 |
| 20260905223016 | 71 | 349 | 2.0 | 4.0 | 0.00 | 0.00 | 0.00 | 57 | 1017.2 |
| 20260905221514 | 71 | 355 | 2.0 | 5.0 | 0.00 | 0.00 | 0.00 | 60 | 1017.4 |
| 20260905220011 | 71 | 25 | 3.0 | 6.0 | 0.00 | 0.00 | 0.00 | 66 | 1017.6 |
| 20260905214507 | 69 | 13 | 3.0 | 5.0 | 0.00 | 0.00 | 0.00 | 68 | 1017.7 |
| 20260905213003 | 67 | 11 | 4.0 | 6.0 | 0.00 | 0.00 | 0.00 | 71 | 1017.8 |
| 20260905211557 | 64 | 161 | 5.0 | 7.0 | 0.00 | 0.00 | 0.00 | 75 | 1017.9 |
| 20260905210105 | 63 | 161 | 1.0 | 6.0 | 0.00 | 0.00 | 0.00 | 77 | 1018.1 |
| 20260905204556 | 62 | 166 | 4.0 | 5.0 | 0.00 | 0.00 | 0.00 | 80 | 1018.1 |
| 20260905203107 | 62 | 319 | 2.0 | 4.0 | 0.00 | 0.00 | 0.00 | 83 | 1018.3 |
| 20260905201548 | 61 | 309 | 0.0 | 1.0 | 0.00 | 0.00 | 0.00 | 82 | 1018.3 |
| 20260905200048 | 61 | 309 | 0.0 | 2.0 | 0.00 | 0.00 | 0.00 | 80 | 1018.3 |
| 20260905194545 | 61 | 309 | 1.0 | 3.0 | 0.00 | 0.00 | 0.00 | 81 | 1018.4 |
| 20260905193044 | 60 | 308 | 1.0 | 2.0 | 0.00 | 0.00 | 0.00 | 82 | 1018.6 |
| 20260905191542 | 60 | 309 | 0.0 | 3.0 | 0.00 | 0.00 | 0.00 | 82 | 1018.6 |
| 20260905190041 | 60 | 309 | 2.0 | 3.0 | 0.00 | 0.00 | 0.00 | 83 | 1018.7 |
| 20260905184544 | 59 | 309 | 1.0 | 4.0 | 0.00 | 0.00 | 0.00 | 84 | 1018.8 |
| 20260905183035 | 58 | 308 | 2.0 | 4.0 | 0.00 | 0.00 | 0.00 | 85 | 1018.9 |
| 20260905181533 | 58 | 309 | 0.0 | 3.0 | 0.00 | 0.00 | 0.00 | 86 | 1019.1 |
| 20260905180031 | 58 | 310 | 3.0 | 5.0 | 0.00 | 0.00 | 0.00 | 87 | 1019.1 |
| 20260905174534 | 57 | 315 | 1.0 | 4.0 | 0.00 | 0.00 | 0.00 | 87 | 1019.0 |
| 20260905173029 | 57 | 315 | 2.0 | 5.0 | 0.00 | 0.00 | 0.00 | 87 | 1018.9 |
| 20260905171534 | 57 | 313 | 2.0 | 4.0 | 0.00 | 0.00 | 0.00 | 86 | 1018.8 |
| 20260905170026 | 57 | 313 | 1.0 | 3.0 | 0.00 | 0.00 | 0.00 | 87 | 1018.8 |
| 20260905164523 | 57 | 313 | 1.0 | 4.0 | 0.00 | 0.00 | 0.00 | 87 | 1018.7 |
| 20260905163025 | 56 | 311 | 3.0 | 5.0 | 0.00 | 0.00 | 0.00 | 89 | 1018.6 |
| 20260905161517 | 56 | 300 | 0.0 | 2.0 | 0.00 | 0.00 | 0.00 | 90 | 1018.5 |
| 20260905160015 | 55 | 300 | 0.0 | 3.0 | 0.00 | 0.00 | 0.00 | 90 | 1018.5 |
| 20260905154513 | 55 | 300 | 1.0 | 3.0 | 0.00 | 0.01 | 0.00 | 90 | 1018.5 |
| 20260905153014 | 54 | 299 | 2.0 | 4.0 | 0.00 | 0.01 | 0.00 | 90 | 1018.6 |
| 20260905151511 | 54 | 190 | 0.0 | 4.0 | 0.00 | 0.01 | 0.00 | 90 | 1018.5 |
| 20260905150011 | 53 | 163 | 2.0 | 6.0 | 0.00 | 0.01 | 0.00 | 91 | 1018.5 |
| 20260905144510 | 53 | 126 | 2.0 | 5.0 | 0.00 | 0.03 | 0.00 | 91 | 1018.3 |
| 20260905143007 | 53 | 153 | 4.0 | 7.0 | 0.00 | 0.03 | 0.00 | 92 | 1018.1 |
| 20260905141506 | 52 | 150 | 2.0 | 6.0 | 0.00 | 0.03 | 0.00 | 92 | 1018.1 |
| 20260905140005 | 52 | 156 | 2.0 | 3.0 | 0.00 | 0.03 | 0.00 | 91 | 1017.9 |
| 20260905134507 | 52 | 156 | 1.0 | 2.0 | 0.00 | 0.03 | 0.00 | 91 | 1017.8 |
| 20260905133006 | 52 | 156 | 0.0 | 3.0 | 0.00 | 0.03 | 0.00 | 91 | 1017.8 |
| 20260905131503 | 52 | 155 | 2.0 | 5.0 | 0.00 | 0.03 | 0.00 | 91 | 1017.8 |
| 20260905130000 | 52 | 158 | 4.0 | 6.0 | 0.00 | 0.04 | 0.00 | 91 | 1017.7 |
| 20260905124600 | 52 | 163 | 1.0 | 6.0 | 0.00 | 0.04 | 0.00 | 91 | 1017.7 |
| 20260905123102 | 51 | 172 | 5.0 | 8.0 | 0.00 | 0.04 | 0.00 | 92 | 1017.6 |
| 20260905121556 | 51 | 147 | 2.0 | 3.0 | 0.00 | 0.04 | 0.00 | 91 | 1017.6 |
| 20260905120057 | 51 | 147 | 2.0 | 3.0 | 0.00 | 0.04 | 0.00 | 90 | 1017.6 |
| 20260905114605 | 51 | 150 | 1.0 | 3.0 | 0.00 | 0.04 | 0.00 | 90 | 1017.6 |
| 20260905113052 | 51 | 150 | 2.0 | 3.0 | 0.00 | 0.04 | 0.00 | 90 | 1017.5 |
| 20260905111621 | 51 | 150 | 3.0 | 5.0 | 0.00 | 0.04 | 0.00 | 89 | 1017.5 |
| 20260905110055 | 52 | 150 | 2.0 | 5.0 | 0.00 | 0.04 | 0.00 | 88 | 1017.4 |
| 20260905104607 | 52 | 150 | 2.0 | 3.0 | 0.00 | 0.04 | 0.00 | 88 | 1017.2 |
| 20260905103044 | 53 | 150 | 2.0 | 3.0 | 0.00 | 0.04 | 0.00 | 87 | 1017.2 |
| 20260905101549 | 53 | 150 | 0.0 | 1.0 | 0.00 | 0.04 | 0.00 | 87 | 1017.1 |
| 20260905100044 | 53 | 150 | 0.0 | 6.0 | 0.00 | 0.04 | 0.00 | 88 | 1017.0 |
| 20260905094635 | 54 | 162 | 4.0 | 7.0 | 0.00 | 0.04 | 0.00 | 87 | 1017.0 |
| 20260905093040 | 54 | 151 | 6.0 | 9.0 | 0.00 | 0.04 | 0.00 | 88 | 1017.1 |
| 20260905091537 | 53 | 154 | 3.0 | 7.0 | 0.00 | 0.04 | 0.00 | 88 | 1017.0 |
| 20260905090037 | 54 | 129 | 2.0 | 7.0 | 0.00 | 0.04 | 0.00 | 88 | 1016.9 |
| 20260905084544 | 54 | 162 | 5.0 | 9.0 | 0.00 | 0.04 | 0.00 | 89 | 1016.9 |
| 20260905083030 | 53 | 150 | 3.0 | 6.0 | 0.00 | 0.04 | 0.00 | 89 | 1016.8 |
| 20260905081530 | 53 | 159 | 3.0 | 6.0 | 0.00 | 0.04 | 0.00 | 89 | 1016.8 |
| 20260905080029 | 53 | 146 | 4.0 | 7.0 | 0.00 | 0.04 | 0.00 | 88 | 1016.8 |